Time,TemperatureF,DewpointF,PressureIn,WindDirection,WindDirectionDegrees,WindSpeedMPH,WindSpeedGustMPH,Humidity,HourlyPrecipIn,Conditions,Clouds,dailyrainin,SoftwareType,DateUTC
2013-05-04 00:01:00,44.1,39.0,30.38,East,83,0.0,0.0,82,0.00,CLR,,0.00,WeatherDisplay:10.37,2013-05-04 04:01:00,
2013-05-04 00:02:00,44.0,38.9,30.38,East,83,0.0,0.0,82,0.00,CLR,,0.00,WeatherDisplay:10.37,2013-05-04 04:02:00,
2013-05-04 00:07:00,43.8,38.7,30.38,East,83,0.0,0.0,82,0.00,CLR,,0.00,WeatherDisplay:10.37,2013-05-04 04:07:00,
2013-05-04 00:12:00,43.9,38.8,30.38,East,83,0.0,0.0,82,0.00,CLR,,0.00,WeatherDisplay:10.37,2013-05-04 04:12:00,
2013-05-04 00:17:00,43.8,38.7,30.38,East,83,0.0,0.0,82,0.00,CLR,,0.00,WeatherDisplay:10.37,2013-05-04 04:17:00,
2013-05-04 00:22:00,43.8,38.7,30.38,East,83,0.0,0.0,82,0.00,CLR,,0.00,WeatherDisplay:10.37,2013-05-04 04:22:00,
2013-05-04 00:27:00,43.2,38.1,30.38,East,83,0.0,0.0,82,0.00,CLR,,0.00,WeatherDisplay:10.37,2013-05-04 04:27:00,
2013-05-04 00:32:00,42.9,37.8,30.38,East,83,0.0,0.0,82,0.00,CLR,,0.00,WeatherDisplay:10.37,2013-05-04 04:32:00,
2013-05-04 00:37:00,43.1,38.0,30.38,East,83,0.0,0.0,82,0.00,CLR,,0.00,WeatherDisplay:10.37,2013-05-04 04:37:00,
2013-05-04 00:42:00,43.3,38.2,30.38,East,83,0.0,0.0,82,0.00,CLR,,0.00,WeatherDisplay:10.37,2013-05-04 04:42:00,
2013-05-04 00:47:00,42.7,37.6,30.38,East,83,0.0,0.0,82,0.00,CLR,,0.00,WeatherDisplay:10.37,2013-05-04 04:47:00,
2013-05-04 00:52:00,42.1,37.0,30.38,East,83,0.0,0.0,82,0.00,CLR,,0.00,WeatherDisplay:10.37,2013-05-04 04:52:00,
2013-05-04 00:57:00,41.9,36.8,30.38,East,83,0.0,0.0,82,0.00,CLR,,0.00,WeatherDisplay:10.37,2013-05-04 04:57:00,
2013-05-04 01:02:00,42.3,39.0,30.37,East,83,0.0,0.0,88,0.00,CLR,,0.00,WeatherDisplay:10.37,2013-05-04 05:02:00,
2013-05-04 01:07:00,42.2,38.9,30.37,East,83,0.0,0.0,88,0.00,CLR,,0.00,WeatherDisplay:10.37,2013-05-04 05:07:00,
2013-05-04 01:12:00,42.2,38.9,30.37,East,83,0.0,0.0,88,0.00,CLR,,0.00,WeatherDisplay:10.37,2013-05-04 05:12:00,
2013-05-04 01:17:00,41.9,38.6,30.37,East,83,0.0,0.0,88,0.00,CLR,,0.00,WeatherDisplay:10.37,2013-05-04 05:17:00,
2013-05-04 01:22:00,41.8,38.5,30.37,East,83,0.0,0.0,88,0.00,CLR,,0.00,WeatherDisplay:10.37,2013-05-04 05:22:00,
2013-05-04 01:27:00,41.4,38.1,30.37,East,83,0.0,0.0,88,0.00,CLR,,0.00,WeatherDisplay:10.37,2013-05-04 05:27:00,
2013-05-04 01:32:00,41.5,38.2,30.37,East,83,0.0,0.0,88,0.00,CLR,,0.00,WeatherDisplay:10.37,2013-05-04 05:32:00,
2013-05-04 01:37:00,41.0,37.7,30.37,East,83,0.0,0.0,88,0.00,CLR,,0.00,WeatherDisplay:10.37,2013-05-04 05:37:00,
2013-05-04 01:42:00,40.3,37.0,30.37,East,83,0.0,0.0,88,0.00,CLR,,0.00,WeatherDisplay:10.37,2013-05-04 05:42:00,
2013-05-04 01:47:00,40.4,37.1,30.37,East,83,0.0,0.0,88,0.00,CLR,,0.00,WeatherDisplay:10.37,2013-05-04 05:47:00,
2013-05-04 01:52:00,40.4,37.1,30.37,East,83,0.0,0.0,88,0.00,CLR,,0.00,WeatherDisplay:10.37,2013-05-04 05:52:00,
2013-05-04 01:57:00,40.5,37.2,30.37,East,83,0.0,0.0,88,0.00,CLR,,0.00,WeatherDisplay:10.37,2013-05-04 05:57:00,
2013-05-04 02:02:00,40.4,39.1,30.35,East,83,0.0,0.0,95,0.00,CLR,,0.00,WeatherDisplay:10.37,2013-05-04 06:02:00,
2013-05-04 02:07:00,40.9,39.6,30.35,East,83,0.0,0.0,95,0.00,CLR,,0.00,WeatherDisplay:10.37,2013-05-04 06:07:00,
2013-05-04 02:12:00,40.8,39.5,30.35,East,83,0.0,0.0,95,0.00,CLR,,0.00,WeatherDisplay:10.37,2013-05-04 06:12:00,
2013-05-04 02:17:00,40.7,39.4,30.35,East,83,0.0,0.0,95,0.00,CLR,,0.00,WeatherDisplay:10.37,2013-05-04 06:17:00,
2013-05-04 02:22:00,40.6,39.3,30.35,East,83,0.0,0.0,95,0.00,CLR,,0.00,WeatherDisplay:10.37,2013-05-04 06:22:00,
2013-05-04 02:27:00,40.4,39.1,30.35,East,83,0.0,0.0,95,0.00,CLR,,0.00,WeatherDisplay:10.37,2013-05-04 06:27:00,
2013-05-04 02:32:00,40.0,38.7,30.35,East,83,0.0,0.0,95,0.00,CLR,,0.00,WeatherDisplay:10.37,2013-05-04 06:32:00,
2013-05-04 02:37:00,39.7,38.4,30.35,East,83,0.0,0.0,95,0.00,CLR,,0.00,WeatherDisplay:10.37,2013-05-04 06:37:00,
2013-05-04 02:42:00,39.3,38.0,30.35,East,83,0.0,0.0,95,0.00,CLR,,0.00,WeatherDisplay:10.37,2013-05-04 06:42:00,
2013-05-04 02:47:00,39.6,38.3,30.35,East,83,0.0,0.0,95,0.00,CLR,,0.00,WeatherDisplay:10.37,2013-05-04 06:47:00,
2013-05-04 02:52:00,39.7,38.4,30.35,East,83,0.0,0.0,95,0.00,CLR,,0.00,WeatherDisplay:10.37,2013-05-04 06:52:00,
2013-05-04 02:57:00,39.3,38.0,30.35,East,83,0.0,0.0,95,0.00,CLR,,0.00,WeatherDisplay:10.37,2013-05-04 06:57:00,
2013-05-04 03:02:00,38.6,37.3,30.34,East,83,0.0,0.0,95,0.00,CLR,,0.00,WeatherDisplay:10.37,2013-05-04 07:02:00,
2013-05-04 03:07:00,38.3,37.0,30.34,East,83,0.0,0.0,95,0.00,CLR,,0.00,WeatherDisplay:10.37,2013-05-04 07:07:00,
2013-05-04 03:12:00,38.2,36.9,30.34,East,83,0.0,0.0,95,0.00,CLR,,0.00,WeatherDisplay:10.37,2013-05-04 07:12:00,
2013-05-04 03:17:00,38.1,36.8,30.34,East,83,0.0,0.0,95,0.00,CLR,,0.00,WeatherDisplay:10.37,2013-05-04 07:17:00,
2013-05-04 03:22:00,37.9,36.6,30.34,East,83,0.0,0.0,95,0.00,CLR,,0.00,WeatherDisplay:10.37,2013-05-04 07:22:00,
2013-05-04 03:27:00,37.8,36.5,30.34,East,83,0.0,0.0,95,0.00,CLR,,0.00,WeatherDisplay:10.37,2013-05-04 07:27:00,
2013-05-04 03:32:00,38.1,36.8,30.34,East,83,0.0,0.0,95,0.00,CLR,,0.00,WeatherDisplay:10.37,2013-05-04 07:32:00,
2013-05-04 03:37:00,38.4,37.1,30.34,East,83,0.0,0.0,95,0.00,CLR,,0.00,WeatherDisplay:10.37,2013-05-04 07:37:00,
2013-05-04 03:42:00,38.4,37.1,30.34,East,83,0.0,0.0,95,0.00,CLR,,0.00,WeatherDisplay:10.37,2013-05-04 07:42:00,
2013-05-04 03:47:00,38.1,36.8,30.34,East,83,0.0,0.0,95,0.00,CLR,,0.00,WeatherDisplay:10.37,2013-05-04 07:47:00,
2013-05-04 03:52:00,38.1,36.8,30.34,East,83,0.0,0.0,95,0.00,CLR,,0.00,WeatherDisplay:10.37,2013-05-04 07:52:00,
2013-05-04 03:57:00,38.5,37.2,30.34,East,83,0.0,0.0,95,0.00,CLR,,0.00,WeatherDisplay:10.37,2013-05-04 07:57:00,
2013-05-04 04:02:00,38.6,37.6,30.34,East,83,0.0,0.0,96,0.00,CLR,,0.00,WeatherDisplay:10.37,2013-05-04 08:02:00,
2013-05-04 04:07:00,38.7,37.7,30.34,East,83,0.0,0.0,96,0.00,CLR,,0.00,WeatherDisplay:10.37,2013-05-04 08:07:00,
2013-05-04 04:12:00,38.8,37.8,30.34,East,83,0.0,0.0,96,0.00,CLR,,0.00,WeatherDisplay:10.37,2013-05-04 08:12:00,
2013-05-04 04:17:00,38.3,37.3,30.34,East,83,0.0,0.0,96,0.00,CLR,,0.00,WeatherDisplay:10.37,2013-05-04 08:17:00,
2013-05-04 04:22:00,37.8,36.8,30.34,East,83,0.0,0.0,96,0.00,CLR,,0.00,WeatherDisplay:10.37,2013-05-04 08:22:00,
2013-05-04 04:27:00,37.1,36.1,30.34,East,83,0.0,0.0,96,0.00,CLR,,0.00,WeatherDisplay:10.37,2013-05-04 08:27:00,
2013-05-04 04:32:00,37.0,36.0,30.34,East,83,0.0,0.0,96,0.00,CLR,,0.00,WeatherDisplay:10.37,2013-05-04 08:32:00,
2013-05-04 04:37:00,37.3,36.3,30.34,East,83,0.0,0.0,96,0.00,CLR,,0.00,WeatherDisplay:10.37,2013-05-04 08:37:00,
2013-05-04 04:42:00,37.2,36.2,30.34,East,83,0.0,0.0,96,0.00,CLR,,0.00,WeatherDisplay:10.37,2013-05-04 08:42:00,
2013-05-04 04:47:00,37.1,36.1,30.34,East,83,0.0,0.0,96,0.00,CLR,,0.00,WeatherDisplay:10.37,2013-05-04 08:47:00,
2013-05-04 04:52:00,36.9,35.9,30.34,East,83,0.0,0.0,96,0.00,CLR,,0.00,WeatherDisplay:10.37,2013-05-04 08:52:00,
2013-05-04 04:57:00,36.9,35.9,30.34,East,83,0.0,0.0,96,0.00,CLR,,0.00,WeatherDisplay:10.37,2013-05-04 08:57:00,
2013-05-04 05:02:00,37.0,35.7,30.33,East,83,0.0,0.0,95,0.00,CLR,,0.00,WeatherDisplay:10.37,2013-05-04 09:02:00,
2013-05-04 05:07:00,37.1,35.8,30.33,East,83,0.0,0.0,95,0.00,CLR,,0.00,WeatherDisplay:10.37,2013-05-04 09:07:00,
2013-05-04 05:12:00,37.2,35.9,30.33,East,83,0.0,0.0,95,0.00,CLR,,0.00,WeatherDisplay:10.37,2013-05-04 09:12:00,
2013-05-04 05:17:00,37.0,35.7,30.33,East,83,0.0,0.0,95,0.00,CLR,,0.00,WeatherDisplay:10.37,2013-05-04 09:17:00,
2013-05-04 05:22:00,37.6,36.3,30.33,East,83,0.0,0.0,95,0.00,CLR,,0.00,WeatherDisplay:10.37,2013-05-04 09:22:00,
2013-05-04 05:27:00,37.6,36.3,30.33,East,83,0.0,0.0,95,0.00,CLR,,0.00,WeatherDisplay:10.37,2013-05-04 09:27:00,
2013-05-04 05:32:00,37.6,36.3,30.33,East,83,0.0,0.0,95,0.00,CLR,,0.00,WeatherDisplay:10.37,2013-05-04 09:32:00,
2013-05-04 05:37:00,37.4,36.1,30.33,East,83,0.0,0.0,95,0.00,CLR,,0.00,WeatherDisplay:10.37,2013-05-04 09:37:00,
2013-05-04 05:42:00,37.4,36.1,30.33,East,83,0.0,0.0,95,0.00,CLR,,0.00,WeatherDisplay:10.37,2013-05-04 09:42:00,
2013-05-04 05:47:00,37.7,36.4,30.33,East,83,0.0,0.0,95,0.00,CLR,,0.00,WeatherDisplay:10.37,2013-05-04 09:47:00,
2013-05-04 05:52:00,38.0,36.7,30.33,East,83,0.0,0.0,95,0.00,CLR,,0.00,WeatherDisplay:10.37,2013-05-04 09:52:00,
2013-05-04 05:57:00,38.4,37.1,30.33,East,83,0.0,0.0,95,0.00,CLR,,0.00,WeatherDisplay:10.37,2013-05-04 09:57:00,
2013-05-04 06:02:00,37.5,37.5,30.35,East,83,0.0,0.0,100,0.00,CLR,,0.00,WeatherDisplay:10.37,2013-05-04 10:02:00,
2013-05-04 06:07:00,37.4,37.4,30.35,East,83,0.0,0.0,100,0.00,CLR,,0.00,WeatherDisplay:10.37,2013-05-04 10:07:00,
2013-05-04 06:12:00,36.8,36.8,30.35,East,83,0.0,0.0,100,0.00,CLR,,0.00,WeatherDisplay:10.37,2013-05-04 10:12:00,
2013-05-04 06:17:00,36.8,36.8,30.35,East,83,0.0,0.0,100,0.00,CLR,,0.00,WeatherDisplay:10.37,2013-05-04 10:17:00,
2013-05-04 06:22:00,37.7,37.7,30.35,East,83,0.0,0.0,100,0.00,CLR,,0.00,WeatherDisplay:10.37,2013-05-04 10:22:00,
2013-05-04 06:27:00,38.4,38.4,30.35,East,83,0.0,0.0,100,0.00,CLR,,0.00,WeatherDisplay:10.37,2013-05-04 10:27:00,
2013-05-04 06:32:00,38.1,38.1,30.35,East,83,0.0,0.0,100,0.00,CLR,,0.00,WeatherDisplay:10.37,2013-05-04 10:32:00,
2013-05-04 06:37:00,41.0,41.0,30.35,East,83,0.0,0.0,100,0.00,CLR,,0.00,WeatherDisplay:10.37,2013-05-04 10:37:00,
2013-05-04 06:42:00,39.6,39.6,30.35,East,83,0.0,0.0,100,0.00,CLR,,0.00,WeatherDisplay:10.37,2013-05-04 10:42:00,
2013-05-04 06:47:00,42.6,42.6,30.35,East,83,0.0,0.0,100,0.00,CLR,,0.00,WeatherDisplay:10.37,2013-05-04 10:47:00,
2013-05-04 06:52:00,43.8,43.8,30.35,East,83,0.0,0.0,100,0.00,CLR,,0.00,WeatherDisplay:10.37,2013-05-04 10:52:00,
2013-05-04 06:57:00,43.2,43.2,30.35,East,83,0.0,0.0,100,0.00,CLR,,0.00,WeatherDisplay:10.37,2013-05-04 10:57:00,
2013-05-04 07:02:00,41.5,40.2,30.36,East,83,0.0,0.0,95,0.00,CLR,,0.00,WeatherDisplay:10.37,2013-05-04 11:02:00,
2013-05-04 07:07:00,42.8,41.5,30.36,East,83,0.0,0.0,95,0.00,CLR,,0.00,WeatherDisplay:10.37,2013-05-04 11:07:00,
2013-05-04 07:12:00,44.2,42.9,30.36,East,83,0.0,0.0,95,0.00,CLR,,0.00,WeatherDisplay:10.37,2013-05-04 11:12:00,
2013-05-04 07:17:00,44.5,43.2,30.36,East,83,0.0,0.0,95,0.00,CLR,,0.00,WeatherDisplay:10.37,2013-05-04 11:17:00,
2013-05-04 07:22:00,45.5,44.2,30.36,East,83,0.0,0.0,95,0.00,CLR,,0.00,WeatherDisplay:10.37,2013-05-04 11:22:00,
2013-05-04 07:27:00,47.2,45.8,30.36,East,83,0.0,0.0,95,0.00,CLR,,0.00,WeatherDisplay:10.37,2013-05-04 11:27:00,
2013-05-04 07:32:00,48.0,46.6,30.36,NE,50,0.0,0.0,95,0.00,CLR,,0.00,WeatherDisplay:10.37,2013-05-04 11:32:00,
2013-05-04 07:37:00,47.3,45.9,30.36,NNE,23,1.1,0.0,95,0.00,CLR,,0.00,WeatherDisplay:10.37,2013-05-04 11:37:00,
2013-05-04 07:42:00,48.2,46.8,30.36,ENE,75,1.1,0.0,95,0.00,CLR,,0.00,WeatherDisplay:10.37,2013-05-04 11:42:00,
2013-05-04 07:47:00,48.8,47.4,30.36,ENE,57,0.0,0.0,95,0.00,CLR,,0.00,WeatherDisplay:10.37,2013-05-04 11:47:00,
2013-05-04 07:52:00,49.1,47.7,30.36,ENE,58,0.0,0.0,95,0.00,CLR,,0.00,WeatherDisplay:10.37,2013-05-04 11:52:00,
2013-05-04 07:58:00,49.5,48.1,30.36,ENE,58,0.0,0.0,95,0.00,CLR,,0.00,WeatherDisplay:10.37,2013-05-04 11:58:00,
2013-05-04 08:03:00,49.5,43.3,30.37,ENE,58,0.0,0.0,79,0.00,CLR,,0.00,WeatherDisplay:10.37,2013-05-04 12:03:00,
2013-05-04 08:08:00,50.3,44.0,30.37,ENE,58,0.0,0.0,79,0.00,CLR,,0.00,WeatherDisplay:10.37,2013-05-04 12:08:00,
2013-05-04 08:14:00,50.3,44.0,30.37,ENE,71,0.0,0.0,79,0.00,CLR,,0.00,WeatherDisplay:10.37,2013-05-04 12:14:00,
2013-05-04 08:19:00,50.4,44.1,30.37,ENE,77,0.0,0.0,79,0.00,CLR,,0.00,WeatherDisplay:10.37,2013-05-04 12:19:00,
2013-05-04 08:24:00,51.3,45.0,30.37,ENE,78,0.0,0.0,79,0.00,CLR,,0.00,WeatherDisplay:10.37,2013-05-04 12:24:00,
2013-05-04 08:29:00,51.0,44.7,30.37,ENE,78,0.0,0.0,79,0.00,CLR,,0.00,WeatherDisplay:10.37,2013-05-04 12:29:00,
2013-05-04 08:34:00,51.7,45.4,30.37,ENE,78,0.0,0.0,79,0.00,CLR,,0.00,WeatherDisplay:10.37,2013-05-04 12:34:00,
2013-05-04 08:39:00,52.3,46.0,30.37,ENE,77,0.0,0.0,79,0.00,CLR,,0.00,WeatherDisplay:10.37,2013-05-04 12:39:00,
2013-05-04 08:44:00,52.1,45.8,30.37,ENE,77,0.0,0.0,79,0.00,CLR,,0.00,WeatherDisplay:10.37,2013-05-04 12:44:00,
2013-05-04 08:49:00,52.7,46.4,30.37,ENE,77,0.0,0.0,79,0.00,CLR,,0.00,WeatherDisplay:10.37,2013-05-04 12:49:00,
2013-05-04 08:54:00,53.4,47.0,30.37,ENE,77,0.0,0.0,79,0.00,CLR,,0.00,WeatherDisplay:10.37,2013-05-04 12:54:00,
2013-05-04 08:59:00,53.0,46.7,30.37,ENE,77,0.0,0.0,79,0.00,CLR,,0.00,WeatherDisplay:10.37,2013-05-04 12:59:00,
2013-05-04 09:04:00,53.8,41.5,30.37,ENE,77,0.0,0.0,63,0.00,CLR,,0.00,WeatherDisplay:10.37,2013-05-04 13:04:00,
2013-05-04 09:09:00,53.9,41.6,30.37,ENE,77,0.0,0.0,63,0.00,CLR,,0.00,WeatherDisplay:10.37,2013-05-04 13:09:00,
2013-05-04 09:14:00,53.9,41.6,30.37,ENE,74,0.0,0.0,63,0.00,CLR,,0.00,WeatherDisplay:10.37,2013-05-04 13:14:00,
2013-05-04 09:19:00,53.0,40.7,30.37,ENE,74,0.0,0.0,63,0.00,CLR,,0.00,WeatherDisplay:10.37,2013-05-04 13:19:00,
2013-05-04 09:24:00,54.7,42.3,30.37,ENE,72,0.0,0.0,63,0.00,CLR,,0.00,WeatherDisplay:10.37,2013-05-04 13:24:00,
2013-05-04 09:29:00,55.0,42.6,30.37,ENE,72,0.0,0.0,63,0.00,CLR,,0.00,WeatherDisplay:10.37,2013-05-04 13:29:00,
2013-05-04 09:34:00,54.0,41.7,30.37,ENE,76,0.0,0.0,63,0.00,CLR,,0.00,WeatherDisplay:10.37,2013-05-04 13:34:00,
2013-05-04 09:39:00,55.7,43.3,30.37,ENE,76,0.0,0.0,63,0.00,CLR,,0.00,WeatherDisplay:10.37,2013-05-04 13:39:00,
2013-05-04 09:44:00,56.4,44.0,30.37,East,82,0.0,0.0,63,0.00,CLR,,0.00,WeatherDisplay:10.37,2013-05-04 13:44:00,
2013-05-04 09:49:00,56.1,43.7,30.37,ENE,77,0.0,0.0,63,0.00,CLR,,0.00,WeatherDisplay:10.37,2013-05-04 13:49:00,
2013-05-04 09:54:00,56.4,44.0,30.37,East,79,0.0,0.0,63,0.00,CLR,,0.00,WeatherDisplay:10.37,2013-05-04 13:54:00,
2013-05-04 09:59:00,57.8,45.3,30.37,East,81,0.0,0.0,63,0.00,CLR,,0.00,WeatherDisplay:10.37,2013-05-04 13:59:00,
2013-05-04 10:04:00,57.3,40.3,30.37,East,82,0.0,0.0,53,0.00,CLR,,0.00,WeatherDisplay:10.37,2013-05-04 14:04:00,
2013-05-04 10:09:00,58.3,41.2,30.37,East,82,0.0,0.0,53,0.00,CLR,,0.00,WeatherDisplay:10.37,2013-05-04 14:09:00,
2013-05-04 10:14:00,59.1,42.0,30.37,East,82,0.0,0.0,53,0.00,CLR,,0.00,WeatherDisplay:10.37,2013-05-04 14:14:00,
2013-05-04 10:19:00,59.8,42.6,30.37,East,82,0.0,0.0,53,0.00,CLR,,0.00,WeatherDisplay:10.37,2013-05-04 14:19:00,
2013-05-04 10:24:00,59.6,42.4,30.37,East,82,0.0,0.0,53,0.00,CLR,,0.00,WeatherDisplay:10.37,2013-05-04 14:24:00,
2013-05-04 10:29:00,59.7,42.5,30.37,East,82,0.0,0.0,53,0.00,CLR,,0.00,WeatherDisplay:10.37,2013-05-04 14:29:00,
2013-05-04 10:34:00,60.5,43.3,30.37,East,79,0.0,0.0,53,0.00,CLR,,0.00,WeatherDisplay:10.37,2013-05-04 14:34:00,
2013-05-04 10:39:00,58.8,41.7,30.37,East,80,0.0,0.0,53,0.00,CLR,,0.00,WeatherDisplay:10.37,2013-05-04 14:39:00,
2013-05-04 10:44:00,59.7,42.5,30.37,ENE,76,0.0,0.0,53,0.00,CLR,,0.00,WeatherDisplay:10.37,2013-05-04 14:44:00,
2013-05-04 10:49:00,60.9,43.6,30.37,ENE,77,0.0,0.0,53,0.00,CLR,,0.00,WeatherDisplay:10.37,2013-05-04 14:49:00,
2013-05-04 10:54:00,60.7,43.5,30.37,ENE,77,0.0,0.0,53,0.00,CLR,,0.00,WeatherDisplay:10.37,2013-05-04 14:54:00,
2013-05-04 10:59:00,60.9,43.6,30.37,ENE,76,0.0,0.0,53,0.00,CLR,,0.00,WeatherDisplay:10.37,2013-05-04 14:59:00,
2013-05-04 11:04:00,58.6,38.4,30.35,NNE,29,0.0,0.0,47,0.00,CLR,,0.00,WeatherDisplay:10.37,2013-05-04 15:04:00,
2013-05-04 11:09:00,61.5,41.1,30.35,East,81,0.0,0.0,47,0.00,CLR,,0.00,WeatherDisplay:10.37,2013-05-04 15:09:00,
2013-05-04 11:14:00,59.4,39.1,30.35,NE,53,0.0,0.0,47,0.00,CLR,,0.00,WeatherDisplay:10.37,2013-05-04 15:14:00,
2013-05-04 11:19:00,60.9,40.5,30.35,NE,35,0.0,0.0,47,0.00,CLR,,0.00,WeatherDisplay:10.37,2013-05-04 15:19:00,
2013-05-04 11:24:00,61.1,40.7,30.35,NE,44,0.0,0.0,47,0.00,CLR,,0.00,WeatherDisplay:10.37,2013-05-04 15:24:00,
2013-05-04 11:29:00,62.6,42.1,30.35,East,82,0.0,0.0,47,0.00,CLR,,0.00,WeatherDisplay:10.37,2013-05-04 15:29:00,
2013-05-04 11:34:00,60.3,40.0,30.35,NNE,31,0.0,0.0,47,0.00,CLR,,0.00,WeatherDisplay:10.37,2013-05-04 15:34:00,
2013-05-04 11:39:00,63.1,42.5,30.35,East,86,0.0,0.0,47,0.00,CLR,,0.00,WeatherDisplay:10.37,2013-05-04 15:39:00,
2013-05-04 11:44:00,63.6,43.0,30.35,East,81,0.0,0.0,47,0.00,CLR,,0.00,WeatherDisplay:10.37,2013-05-04 15:44:00,
2013-05-04 11:49:00,61.7,41.3,30.35,NNE,29,0.0,0.0,47,0.00,CLR,,0.00,WeatherDisplay:10.37,2013-05-04 15:49:00,
2013-05-04 11:54:00,62.7,42.2,30.35,NNE,20,0.0,0.0,47,0.00,CLR,,0.00,WeatherDisplay:10.37,2013-05-04 15:54:00,
2013-05-04 11:59:00,62.6,42.1,30.35,NNE,15,0.0,0.0,47,0.00,CLR,,0.00,WeatherDisplay:10.37,2013-05-04 15:59:00,
2013-05-04 12:04:00,61.9,34.6,30.33,North,3,0.0,0.0,36,0.00,CLR,,0.00,WeatherDisplay:10.37,2013-05-04 16:04:00,
2013-05-04 12:09:00,63.2,35.8,30.33,North,0,0.0,0.0,36,0.00,CLR,,0.00,WeatherDisplay:10.37,2013-05-04 16:09:00,
2013-05-04 12:14:00,61.9,34.6,30.33,North,9,0.0,0.0,36,0.00,CLR,,0.00,WeatherDisplay:10.37,2013-05-04 16:14:00,
2013-05-04 12:19:00,63.2,35.8,30.33,North,0,0.0,0.0,36,0.00,CLR,,0.00,WeatherDisplay:10.37,2013-05-04 16:19:00,
2013-05-04 12:24:00,62.8,35.4,30.33,NNW,339,0.0,0.0,36,0.00,CLR,,0.00,WeatherDisplay:10.37,2013-05-04 16:24:00,
2013-05-04 12:29:00,64.2,36.7,30.33,NE,40,0.0,0.0,36,0.00,CLR,,0.00,WeatherDisplay:10.37,2013-05-04 16:29:00,
2013-05-04 12:34:00,64.9,37.3,30.33,ENE,71,0.0,0.0,36,0.00,CLR,,0.00,WeatherDisplay:10.37,2013-05-04 16:34:00,
2013-05-04 12:39:00,65.0,37.4,30.33,East,81,0.0,0.0,36,0.00,CLR,,0.00,WeatherDisplay:10.37,2013-05-04 16:39:00,
2013-05-04 12:44:00,64.2,36.7,30.33,North,10,0.0,0.0,36,0.00,CLR,,0.00,WeatherDisplay:10.37,2013-05-04 16:44:00,
2013-05-04 12:49:00,63.9,36.4,30.33,NNE,12,0.0,0.0,36,0.00,CLR,,0.00,WeatherDisplay:10.37,2013-05-04 16:49:00,
2013-05-04 12:54:00,64.9,37.3,30.33,NNE,12,0.0,0.0,36,0.00,CLR,,0.00,WeatherDisplay:10.37,2013-05-04 16:54:00,
2013-05-04 12:59:00,64.9,37.3,30.33,NNE,22,0.0,0.0,36,0.00,CLR,,0.00,WeatherDisplay:10.37,2013-05-04 16:59:00,
2013-05-04 13:04:00,64.0,30.2,30.32,NE,37,0.0,0.0,28,0.00,CLR,,0.00,WeatherDisplay:10.37,2013-05-04 17:04:00,
2013-05-04 13:09:00,66.7,32.5,30.32,North,7,0.0,0.0,28,0.00,CLR,,0.00,WeatherDisplay:10.37,2013-05-04 17:09:00,
2013-05-04 13:14:00,67.4,33.1,30.32,North,11,0.0,0.0,28,0.00,CLR,,0.00,WeatherDisplay:10.37,2013-05-04 17:14:00,
2013-05-04 13:19:00,65.3,31.3,30.32,NNE,15,0.0,0.0,28,0.00,CLR,,0.00,WeatherDisplay:10.37,2013-05-04 17:19:00,
2013-05-04 13:24:00,65.7,31.7,30.32,ENE,66,0.0,0.0,28,0.00,CLR,,0.00,WeatherDisplay:10.37,2013-05-04 17:24:00,
2013-05-04 13:29:00,65.2,31.2,30.32,North,7,0.0,0.0,28,0.00,CLR,,0.00,WeatherDisplay:10.37,2013-05-04 17:29:00,
2013-05-04 13:34:00,64.7,30.8,30.32,North,10,0.0,0.0,28,0.00,CLR,,0.00,WeatherDisplay:10.37,2013-05-04 17:34:00,
2013-05-04 13:39:00,66.6,32.5,30.32,ENE,65,3.5,3.5,28,0.00,CLR,,0.00,WeatherDisplay:10.37,2013-05-04 17:39:00,
2013-05-04 13:44:00,66.2,32.1,30.32,East,79,3.5,3.5,28,0.00,CLR,,0.00,WeatherDisplay:10.37,2013-05-04 17:44:00,
2013-05-04 13:49:00,66.7,32.5,30.32,ESE,103,3.5,3.5,28,0.00,CLR,,0.00,WeatherDisplay:10.37,2013-05-04 17:49:00,
2013-05-04 13:54:00,66.4,32.3,30.32,NNE,16,3.5,3.5,28,0.00,CLR,,0.00,WeatherDisplay:10.37,2013-05-04 17:54:00,
2013-05-04 13:59:00,66.7,32.5,30.32,NNE,16,3.0,3.0,28,0.00,CLR,,0.00,WeatherDisplay:10.37,2013-05-04 17:59:00,
2013-05-04 14:04:00,67.6,35.0,30.30,NNE,16,2.3,2.3,30,0.00,CLR,,0.00,WeatherDisplay:10.37,2013-05-04 18:04:00,
2013-05-04 14:09:00,65.6,33.3,30.30,NNE,30,4.6,4.6,30,0.00,CLR,,0.00,WeatherDisplay:10.37,2013-05-04 18:09:00,
2013-05-04 14:14:00,67.6,35.0,30.30,NNE,30,4.0,4.0,30,0.00,CLR,,0.00,WeatherDisplay:10.37,2013-05-04 18:14:00,
2013-05-04 14:19:00,67.0,34.5,30.30,East,79,4.6,4.6,30,0.00,CLR,,0.00,WeatherDisplay:10.37,2013-05-04 18:19:00,
2013-05-04 14:24:00,67.5,35.0,30.30,NE,52,3.5,3.5,30,0.00,CLR,,0.00,WeatherDisplay:10.37,2013-05-04 18:24:00,
2013-05-04 14:29:00,66.6,34.2,30.30,ENE,66,4.6,4.6,30,0.00,CLR,,0.00,WeatherDisplay:10.37,2013-05-04 18:29:00,
2013-05-04 14:34:00,67.2,34.7,30.30,North,3,5.0,5.0,30,0.00,CLR,,0.00,WeatherDisplay:10.37,2013-05-04 18:34:00,
2013-05-04 14:39:00,67.2,34.7,30.30,North,10,3.5,3.5,30,0.00,CLR,,0.00,WeatherDisplay:10.37,2013-05-04 18:39:00,
2013-05-04 14:44:00,66.8,34.3,30.30,NNE,14,7.0,7.0,30,0.00,CLR,,0.00,WeatherDisplay:10.37,2013-05-04 18:44:00,
2013-05-04 14:49:00,66.7,34.3,30.30,NNE,17,3.5,3.5,30,0.00,CLR,,0.00,WeatherDisplay:10.37,2013-05-04 18:49:00,
2013-05-04 14:54:00,66.7,34.3,30.30,NE,36,3.5,3.5,30,0.00,CLR,,0.00,WeatherDisplay:10.37,2013-05-04 18:54:00,
2013-05-04 14:59:00,67.2,34.7,30.30,NNE,20,5.8,5.8,30,0.00,CLR,,0.00,WeatherDisplay:10.37,2013-05-04 18:59:00,
2013-05-04 15:04:00,66.3,31.3,30.28,NNE,26,5.8,5.8,27,0.00,CLR,,0.00,WeatherDisplay:10.37,2013-05-04 19:04:00,
2013-05-04 15:09:00,67.0,31.9,30.28,NNE,25,4.0,4.0,27,0.00,CLR,,0.00,WeatherDisplay:10.37,2013-05-04 19:09:00,
2013-05-04 15:14:00,68.3,33.0,30.28,NNE,24,3.5,3.5,27,0.00,CLR,,0.00,WeatherDisplay:10.37,2013-05-04 19:14:00,
2013-05-04 15:19:00,66.5,31.5,30.28,ENE,67,9.2,9.2,27,0.00,CLR,,0.00,WeatherDisplay:10.37,2013-05-04 19:19:00,
2013-05-04 15:24:00,66.8,31.7,30.28,East,81,3.5,3.5,27,0.00,CLR,,0.00,WeatherDisplay:10.37,2013-05-04 19:24:00,
2013-05-04 15:29:00,68.1,32.8,30.28,East,82,3.5,3.5,27,0.00,CLR,,0.00,WeatherDisplay:10.37,2013-05-04 19:29:00,
2013-05-04 15:34:00,68.1,32.8,30.28,East,86,2.3,2.3,27,0.00,CLR,,0.00,WeatherDisplay:10.37,2013-05-04 19:34:00,
2013-05-04 15:39:00,67.3,32.1,30.28,ENE,72,4.6,4.6,27,0.00,CLR,,0.00,WeatherDisplay:10.37,2013-05-04 19:39:00,
2013-05-04 15:44:00,68.5,33.2,30.28,NE,44,1.1,1.1,27,0.00,CLR,,0.00,WeatherDisplay:10.37,2013-05-04 19:44:00,
2013-05-04 15:49:00,67.6,32.4,30.28,ENE,69,2.3,2.3,27,0.00,CLR,,0.00,WeatherDisplay:10.37,2013-05-04 19:49:00,
2013-05-04 15:54:00,67.5,32.3,30.28,East,92,2.3,2.3,27,0.00,CLR,,0.00,WeatherDisplay:10.37,2013-05-04 19:54:00,
2013-05-04 15:59:00,67.2,32.1,30.28,ENE,77,4.0,4.0,27,0.00,CLR,,0.00,WeatherDisplay:10.37,2013-05-04 19:59:00,
2013-05-04 16:04:00,67.9,34.4,30.26,ENE,75,3.5,3.5,29,0.00,CLR,,0.00,WeatherDisplay:10.37,2013-05-04 20:04:00,
2013-05-04 16:09:00,67.0,33.7,30.26,ENE,77,6.9,6.9,29,0.00,CLR,,0.00,WeatherDisplay:10.37,2013-05-04 20:09:00,
2013-05-04 16:14:00,67.5,34.1,30.26,NE,50,2.3,2.3,29,0.00,CLR,,0.00,WeatherDisplay:10.37,2013-05-04 20:14:00,
2013-05-04 16:19:00,66.7,33.4,30.26,ENE,67,9.2,9.2,29,0.00,CLR,,0.00,WeatherDisplay:10.37,2013-05-04 20:19:00,
2013-05-04 16:24:00,67.0,33.7,30.26,East,86,6.0,6.0,29,0.00,CLR,,0.00,WeatherDisplay:10.37,2013-05-04 20:24:00,
2013-05-04 16:29:00,67.8,34.4,30.26,ESE,117,5.8,5.8,29,0.00,CLR,,0.00,WeatherDisplay:10.37,2013-05-04 20:29:00,
2013-05-04 16:34:00,66.8,33.5,30.26,NE,53,2.3,2.3,29,0.00,CLR,,0.00,WeatherDisplay:10.37,2013-05-04 20:34:00,
2013-05-04 16:39:00,67.7,34.3,30.26,NE,54,3.5,3.5,29,0.00,CLR,,0.00,WeatherDisplay:10.37,2013-05-04 20:39:00,
2013-05-04 16:44:00,66.7,33.4,30.26,NNE,31,1.1,1.1,29,0.00,CLR,,0.00,WeatherDisplay:10.37,2013-05-04 20:44:00,
2013-05-04 16:49:00,66.7,33.4,30.26,North,10,1.1,1.1,29,0.00,CLR,,0.00,WeatherDisplay:10.37,2013-05-04 20:49:00,
2013-05-04 16:54:00,66.5,33.2,30.26,ENE,64,4.6,4.6,29,0.00,CLR,,0.00,WeatherDisplay:10.37,2013-05-04 20:54:00,
2013-05-04 16:59:00,66.4,33.2,30.26,NE,46,2.3,2.3,29,0.00,CLR,,0.00,WeatherDisplay:10.37,2013-05-04 20:59:00,
2013-05-04 17:04:00,66.4,34.0,30.26,ENE,70,3.5,3.5,30,0.00,CLR,,0.00,WeatherDisplay:10.37,2013-05-04 21:04:00,
2013-05-04 17:09:00,65.9,33.6,30.26,NNE,31,3.5,3.5,30,0.00,CLR,,0.00,WeatherDisplay:10.37,2013-05-04 21:09:00,
2013-05-04 17:14:00,65.9,33.6,30.26,NE,34,4.6,4.6,30,0.00,CLR,,0.00,WeatherDisplay:10.37,2013-05-04 21:14:00,
2013-05-04 17:19:00,64.8,32.6,30.26,ENE,62,3.0,3.0,30,0.00,CLR,,0.00,WeatherDisplay:10.37,2013-05-04 21:19:00,
2013-05-04 17:24:00,64.7,32.5,30.26,NNE,22,1.1,1.1,30,0.00,CLR,,0.00,WeatherDisplay:10.37,2013-05-04 21:24:00,
2013-05-04 17:29:00,65.2,33.0,30.26,ENE,61,1.1,1.1,30,0.00,CLR,,0.00,WeatherDisplay:10.37,2013-05-04 21:29:00,
2013-05-04 17:34:00,64.1,32.0,30.26,NNE,31,3.5,3.5,30,0.00,CLR,,0.00,WeatherDisplay:10.37,2013-05-04 21:34:00,
2013-05-04 17:39:00,63.9,31.8,30.26,SE,132,1.1,1.1,30,0.00,CLR,,0.00,WeatherDisplay:10.37,2013-05-04 21:39:00,
2013-05-04 17:44:00,63.4,31.4,30.26,ENE,75,1.1,1.1,30,0.00,CLR,,0.00,WeatherDisplay:10.37,2013-05-04 21:44:00,
2013-05-04 17:49:00,63.1,31.1,30.26,SSE,152,2.3,2.3,30,0.00,CLR,,0.00,WeatherDisplay:10.37,2013-05-04 21:49:00,
2013-05-04 17:54:00,62.9,31.0,30.26,SE,144,1.1,1.1,30,0.00,CLR,,0.00,WeatherDisplay:10.37,2013-05-04 21:54:00,
2013-05-04 17:59:00,62.5,30.6,30.26,East,92,3.5,3.5,30,0.00,CLR,,0.00,WeatherDisplay:10.37,2013-05-04 21:59:00,
2013-05-04 18:04:00,61.8,35.2,30.28,SE,127,3.5,3.5,37,0.00,CLR,,0.00,WeatherDisplay:10.37,2013-05-04 22:04:00,
2013-05-04 18:09:00,61.7,35.1,30.28,SE,127,0.0,0.0,37,0.00,CLR,,0.00,WeatherDisplay:10.37,2013-05-04 22:09:00,
2013-05-04 18:14:00,61.8,35.2,30.28,NNW,334,3.5,3.5,37,0.00,CLR,,0.00,WeatherDisplay:10.37,2013-05-04 22:14:00,
2013-05-04 18:19:00,60.6,34.2,30.28,NNE,27,2.3,2.3,37,0.00,CLR,,0.00,WeatherDisplay:10.37,2013-05-04 22:19:00,
2013-05-04 18:24:00,61.0,34.5,30.28,North,0,2.3,2.3,37,0.00,CLR,,0.00,WeatherDisplay:10.37,2013-05-04 22:24:00,
2013-05-04 18:29:00,59.6,33.3,30.28,North,0,1.1,1.1,37,0.00,CLR,,0.00,WeatherDisplay:10.37,2013-05-04 22:29:00,
2013-05-04 18:34:00,59.3,33.0,30.28,NE,52,1.1,1.1,37,0.00,CLR,,0.00,WeatherDisplay:10.37,2013-05-04 22:34:00,
2013-05-04 18:39:00,59.2,32.9,30.28,NNE,30,2.3,2.3,37,0.00,CLR,,0.00,WeatherDisplay:10.37,2013-05-04 22:39:00,
2013-05-04 18:44:00,58.7,32.5,30.28,NE,43,3.5,3.5,37,0.00,CLR,,0.00,WeatherDisplay:10.37,2013-05-04 22:44:00,
2013-05-04 18:49:00,58.8,32.6,30.28,NE,42,2.3,2.3,37,0.00,CLR,,0.00,WeatherDisplay:10.37,2013-05-04 22:49:00,
2013-05-04 18:54:00,57.9,31.8,30.28,East,88,3.5,3.5,37,0.00,CLR,,0.00,WeatherDisplay:10.37,2013-05-04 22:54:00,
2013-05-04 18:59:00,57.7,31.6,30.28,ESE,104,2.3,2.3,37,0.00,CLR,,0.00,WeatherDisplay:10.37,2013-05-04 22:59:00,
2013-05-04 19:04:00,56.8,35.7,30.29,ESE,106,0.0,0.0,45,0.00,CLR,,0.00,WeatherDisplay:10.37,2013-05-04 23:04:00,
2013-05-04 19:09:00,57.2,36.0,30.29,ENE,63,3.5,3.5,45,0.00,CLR,,0.00,WeatherDisplay:10.37,2013-05-04 23:09:00,
2013-05-04 19:14:00,56.1,35.0,30.29,East,98,1.1,1.1,45,0.00,CLR,,0.00,WeatherDisplay:10.37,2013-05-04 23:14:00,
2013-05-04 19:19:00,55.4,34.4,30.29,NE,42,1.1,1.1,45,0.00,CLR,,0.00,WeatherDisplay:10.37,2013-05-04 23:19:00,
2013-05-04 19:24:00,54.9,33.9,30.29,NNE,32,3.5,3.5,45,0.00,CLR,,0.00,WeatherDisplay:10.37,2013-05-04 23:24:00,
2013-05-04 19:29:00,53.9,33.0,30.29,NE,45,1.1,1.1,45,0.00,CLR,,0.00,WeatherDisplay:10.37,2013-05-04 23:29:00,
2013-05-04 19:34:00,53.3,32.5,30.29,North,0,3.5,3.5,45,0.00,CLR,,0.00,WeatherDisplay:10.37,2013-05-04 23:34:00,
2013-05-04 19:39:00,52.7,31.9,30.29,East,97,3.5,3.5,45,0.00,CLR,,0.00,WeatherDisplay:10.37,2013-05-04 23:39:00,
2013-05-04 19:44:00,52.1,31.4,30.29,NNE,29,1.1,1.1,45,0.00,CLR,,0.00,WeatherDisplay:10.37,2013-05-04 23:44:00,
2013-05-04 19:49:00,51.8,31.1,30.29,East,91,2.3,2.3,45,0.00,CLR,,0.00,WeatherDisplay:10.37,2013-05-04 23:49:00,
2013-05-04 19:54:00,51.4,30.7,30.29,East,92,1.1,1.1,45,0.00,CLR,,0.00,WeatherDisplay:10.37,2013-05-04 23:54:00,
2013-05-04 19:59:00,50.9,30.3,30.29,East,92,1.1,1.1,45,0.00,CLR,,0.00,WeatherDisplay:10.37,2013-05-04 23:59:00,
2013-05-04 20:04:00,50.6,33.1,30.31,East,96,1.1,0.0,51,0.00,CLR,,0.00,WeatherDisplay:10.37,2013-05-05 00:04:00,
2013-05-04 20:09:00,49.8,32.4,30.31,East,81,1.1,1.1,51,0.00,CLR,,0.00,WeatherDisplay:10.37,2013-05-05 00:09:00,
2013-05-04 20:14:00,49.6,32.2,30.31,ENE,76,0.0,0.0,51,0.00,CLR,,0.00,WeatherDisplay:10.37,2013-05-05 00:14:00,
2013-05-04 20:19:00,49.4,32.0,30.31,NNE,23,1.1,1.1,51,0.00,CLR,,0.00,WeatherDisplay:10.37,2013-05-05 00:19:00,
2013-05-04 20:24:00,48.8,31.5,30.31,ENE,59,1.1,1.1,51,0.00,CLR,,0.00,WeatherDisplay:10.37,2013-05-05 00:24:00,
2013-05-04 20:29:00,48.3,31.0,30.31,NE,42,4.6,4.6,51,0.00,CLR,,0.00,WeatherDisplay:10.37,2013-05-05 00:29:00,
2013-05-04 20:34:00,48.3,31.0,30.31,ENE,57,2.3,2.3,51,0.00,CLR,,0.00,WeatherDisplay:10.37,2013-05-05 00:34:00,
2013-05-04 20:39:00,47.9,30.6,30.31,NE,41,1.1,1.1,51,0.00,CLR,,0.00,WeatherDisplay:10.37,2013-05-05 00:39:00,
2013-05-04 20:44:00,47.6,30.3,30.31,ENE,59,3.5,3.5,51,0.00,CLR,,0.00,WeatherDisplay:10.37,2013-05-05 00:44:00,
2013-05-04 20:49:00,47.1,29.9,30.31,NE,45,2.3,2.3,51,0.00,CLR,,0.00,WeatherDisplay:10.37,2013-05-05 00:49:00,
2013-05-04 20:54:00,47.3,30.1,30.31,NE,46,2.3,2.3,51,0.00,CLR,,0.00,WeatherDisplay:10.37,2013-05-05 00:54:00,
2013-05-04 20:59:00,46.6,29.4,30.31,NE,47,1.1,1.1,51,0.00,CLR,,0.00,WeatherDisplay:10.37,2013-05-05 00:59:00,
2013-05-04 21:04:00,46.6,33.4,30.34,NE,47,1.1,0.0,60,0.00,CLR,,0.00,WeatherDisplay:10.37,2013-05-05 01:04:00,
2013-05-04 21:09:00,46.4,33.3,30.34,NE,47,1.1,0.0,60,0.00,CLR,,0.00,WeatherDisplay:10.37,2013-05-05 01:09:00,
2013-05-04 21:14:00,46.1,33.0,30.34,NE,47,0.0,0.0,60,0.00,CLR,,0.00,WeatherDisplay:10.37,2013-05-05 01:14:00,
2013-05-04 21:19:00,45.8,32.7,30.34,NE,47,1.1,0.0,60,0.00,CLR,,0.00,WeatherDisplay:10.37,2013-05-05 01:19:00,
2013-05-04 21:24:00,45.6,32.5,30.34,NE,47,0.0,0.0,60,0.00,CLR,,0.00,WeatherDisplay:10.37,2013-05-05 01:24:00,
2013-05-04 21:29:00,45.6,32.5,30.34,NE,47,0.0,0.0,60,0.00,CLR,,0.00,WeatherDisplay:10.37,2013-05-05 01:29:00,
2013-05-04 21:34:00,45.2,32.1,30.34,NE,47,0.0,0.0,60,0.00,CLR,,0.00,WeatherDisplay:10.37,2013-05-05 01:34:00,
2013-05-04 21:39:00,45.1,32.0,30.34,NE,47,1.1,1.1,60,0.00,CLR,,0.00,WeatherDisplay:10.37,2013-05-05 01:39:00,
2013-05-04 21:44:00,45.0,31.9,30.34,NE,47,1.1,1.1,60,0.00,CLR,,0.00,WeatherDisplay:10.37,2013-05-05 01:44:00,
2013-05-04 21:49:00,44.8,31.8,30.34,NE,47,1.1,1.1,60,0.00,CLR,,0.00,WeatherDisplay:10.37,2013-05-05 01:49:00,
2013-05-04 21:54:00,44.5,31.5,30.34,NE,47,1.1,1.1,60,0.00,CLR,,0.00,WeatherDisplay:10.37,2013-05-05 01:54:00,
2013-05-04 21:59:00,44.5,31.5,30.34,NE,47,1.0,0.0,60,0.00,CLR,,0.00,WeatherDisplay:10.37,2013-05-05 01:59:00,
2013-05-04 22:04:00,44.2,33.2,30.34,NE,47,0.0,0.0,65,0.00,CLR,,0.00,WeatherDisplay:10.37,2013-05-05 02:04:00,
2013-05-04 22:09:00,43.9,32.9,30.34,NE,47,0.0,0.0,65,0.00,CLR,,0.00,WeatherDisplay:10.37,2013-05-05 02:09:00,
2013-05-04 22:14:00,43.8,32.8,30.34,NE,47,0.0,0.0,65,0.00,CLR,,0.00,WeatherDisplay:10.37,2013-05-05 02:14:00,
2013-05-04 22:19:00,43.5,32.5,30.34,NE,47,0.0,0.0,65,0.00,CLR,,0.00,WeatherDisplay:10.37,2013-05-05 02:19:00,
2013-05-04 22:24:00,43.4,32.4,30.34,NE,47,0.0,0.0,65,0.00,CLR,,0.00,WeatherDisplay:10.37,2013-05-05 02:24:00,
2013-05-04 22:29:00,43.4,32.4,30.34,NE,47,0.0,0.0,65,0.00,CLR,,0.00,WeatherDisplay:10.37,2013-05-05 02:29:00,
2013-05-04 22:34:00,43.2,32.2,30.34,NE,47,0.0,0.0,65,0.00,CLR,,0.00,WeatherDisplay:10.37,2013-05-05 02:34:00,
2013-05-04 22:39:00,42.5,31.6,30.34,NE,47,0.0,0.0,65,0.00,CLR,,0.00,WeatherDisplay:10.37,2013-05-05 02:39:00,
2013-05-04 22:44:00,42.7,31.7,30.34,NE,47,0.0,0.0,65,0.00,CLR,,0.00,WeatherDisplay:10.37,2013-05-05 02:44:00,
2013-05-04 22:49:00,42.6,31.7,30.34,NE,47,0.0,0.0,65,0.00,CLR,,0.00,WeatherDisplay:10.37,2013-05-05 02:49:00,
2013-05-04 22:54:00,42.4,31.5,30.34,NE,47,0.0,0.0,65,0.00,CLR,,0.00,WeatherDisplay:10.37,2013-05-05 02:54:00,
2013-05-04 22:59:00,42.3,31.4,30.34,NE,47,0.0,0.0,65,0.00,CLR,,0.00,WeatherDisplay:10.37,2013-05-05 02:59:00,
2013-05-04 23:04:00,42.2,33.8,30.35,NE,47,0.0,0.0,72,0.00,CLR,,0.00,WeatherDisplay:10.37,2013-05-05 03:04:00,
2013-05-04 23:09:00,42.1,33.7,30.35,NE,47,0.0,0.0,72,0.00,CLR,,0.00,WeatherDisplay:10.37,2013-05-05 03:09:00,
2013-05-04 23:14:00,41.5,33.1,30.35,NE,47,0.0,0.0,72,0.00,CLR,,0.00,WeatherDisplay:10.37,2013-05-05 03:14:00,
2013-05-04 23:19:00,40.8,32.5,30.35,NE,47,0.0,0.0,72,0.00,CLR,,0.00,WeatherDisplay:10.37,2013-05-05 03:19:00,
2013-05-04 23:24:00,40.9,32.6,30.35,NE,47,0.0,0.0,72,0.00,CLR,,0.00,WeatherDisplay:10.37,2013-05-05 03:24:00,
2013-05-04 23:29:00,40.7,32.4,30.35,NE,47,0.0,0.0,72,0.00,CLR,,0.00,WeatherDisplay:10.37,2013-05-05 03:29:00,
2013-05-04 23:34:00,40.2,31.9,30.35,NE,47,0.0,0.0,72,0.00,CLR,,0.00,WeatherDisplay:10.37,2013-05-05 03:34:00,
2013-05-04 23:39:00,40.6,32.3,30.35,NE,47,0.0,0.0,72,0.00,CLR,,0.00,WeatherDisplay:10.37,2013-05-05 03:39:00,
2013-05-04 23:44:00,39.3,31.0,30.35,NE,47,0.0,0.0,72,0.00,CLR,,0.00,WeatherDisplay:10.37,2013-05-05 03:44:00,
2013-05-04 23:49:00,39.3,31.0,30.35,NE,47,0.0,0.0,72,0.00,CLR,,0.00,WeatherDisplay:10.37,2013-05-05 03:49:00,
2013-05-04 23:54:00,39.1,30.8,30.35,NE,47,0.0,0.0,72,0.00,CLR,,0.00,WeatherDisplay:10.37,2013-05-05 03:54:00,
2013-05-04 23:59:00,38.5,30.3,30.35,NE,47,0.0,0.0,72,0.00,CLR,,0.00,WeatherDisplay:10.37,2013-05-05 03:59:00,